Terminal Aerodrome Forecast
Issued by NWS Miami, FL

Home | Current Version | Previous Version | Text Only | Print | Product List | Glossary On
Versions: 1 2 3 4 5 6 7 8 9 10 11 12 13 14 15 16 17 18 19 20 21 22 23 24 25 26 27 28 29 30 31 32 33 34 35 36 37 38 39 40 41 42 43 44 45 46 47 48 49 50
000
FTUS42 KMFL 251848 AAA
TAFFLL
TAF AMD
KFLL 251848Z 2519/2618 24010KT P6SM -RA VCTS FEW025CB SCT040 OVC250
      TEMPO 2519/2521 VRB15G25KT 3SM TSRA SCT015 BKN030CB
     FM252100 25015G25KT P6SM VCSH SCT035 BKN060 OVC090
     FM260000 29005KT P6SM FEW030 SCT060 BKN120
     FM261200 34008KT P6SM SCT035 BKN050=

USA.gov is the U.S. government's official web portal to all federal, state and local government web resources and services.